Flag for United Kingdom

Past Weather in Chester, England, United Kingdom — Yesterday and Last 2 Weeks

Now
68 °F

Passing clouds.


Feels Like: 68 °F
Forecast: 67 / 52 °F
Wind: 9 mph from Southeast

Location: Hawarden Airport

Current Time: Jul 12, 2020 at 3:29:06 pm

Latest Report: Jul 12, 2020 at 2:20 pm


Visibility: N/A

Pressure: 30.36 "Hg

Humidity: 53%

Dew Point: 50 °F

Location of ChesterLocation

Past Weather in Chester — Graph

°F

Chester Temperature Yesterday

Maximum temperature yesterday: 63 °F (at 4:50 pm)
Minimum temperature yesterday: 57 °F (at 8:20 am)
Average temperature yesterday: 60 °F

High & Low Weather Summary for the Past Weeks

 TemperatureHumidityPressure
High68 °F (Jul 4, 3:20 pm)100% (Jul 8, 8:20 am)30.39 "Hg (Jul 8, 8:20 am)
Low54 °F (Jul 12, 8:20 am)48% (Jul 5, 9:20 am)29.45 "Hg (Jun 27, 2:20 pm)
Average60 °F74%29.91 "Hg
* Reported Jun 27 1:20 pm — Jul 12 1:50 pm, Chester. Weather by CustomWeather, © 2020

Note: Actual official high and low records may vary slightly from our data, if they occured in-between our weather recording intervals... More about our weather records

Chester Weather History for the Previous 24 Hours

Scroll right to see more
 ConditionsComfort  
Time TempWeatherWind HumidityBarometerVisibility
1:50 pm
Sun, Jul 12
68 °FPassing clouds.7 mph49%30.36 "HgN/A
1:20 pm68 °FPassing clouds.7 mph49%30.36 "HgN/A
12:50 pm66 °FPassing clouds.12 mph49%30.36 "HgN/A
12:20 pm66 °FPassing clouds.8 mph49%30.36 "HgN/A
11:50 am64 °FPassing clouds.8 mph49%30.36 "HgN/A
11:20 am64 °FPassing clouds.7 mph52%30.39 "HgN/A
10:50 am63 °FPassing clouds.9 mph56%30.39 "HgN/A
10:20 am63 °FPassing clouds.9 mph56%30.39 "HgN/A
9:50 am61 °FPassing clouds.10 mph59%30.39 "HgN/A
9:20 am59 °FSunny.9 mph68%30.39 "Hg10 mi
8:50 am57 °FSunny.9 mph67%30.39 "Hg10 mi
8:20 am54 °FSunny.7 mph82%30.39 "Hg10 mi
5:20 pm
Sat, Jul 11
61 °FPassing clouds.13 mph52%30.39 "HgN/A
4:50 pm63 °FPassing clouds.15 mph52%30.39 "HgN/A
4:20 pm61 °FScattered clouds.14 mph59%30.39 "HgN/A
3:50 pm61 °FScattered clouds.15 mph59%30.39 "HgN/A
3:20 pm61 °FScattered clouds.16 mph59%30.36 "HgN/A
Weather by CustomWeather, © 2020

See weather overview